• în Republica Moldova
  • Lista ţărilor
  • Pe 7 zile
  • Temperatura apei
  • Hartă satelitară
  • Meteo pe hartă
  • Widget-uri
  • user-avatar
    Intrare

    Meteo pe oră la Lezhe

    Astăzi, 26 Mai, Sâmbătă

    Timp Temperatura Precipitaţii Vânt Presiune Umiditate
    00:00 +18°C° 0 mm 2 m/s 737 mmHg 79%
    01:00 +18°C° 0 mm 2 m/s 737 mmHg 80%
    02:00 +17°C° 0 mm 2 m/s 738 mmHg 80%
    03:00 +17°C° 0 mm 3 m/s 738 mmHg 81%
    04:00 +17°C° 0 mm 3 m/s 738 mmHg 81%
    05:00 +19°C° 0 mm 3 m/s 738 mmHg 78%
    06:00 +20°C° 0 mm 3 m/s 738 mmHg 74%
    07:00 +22°C° 0 mm 3 m/s 739 mmHg 70%
    08:00 +25°C° 0 mm 3 m/s 739 mmHg 65%
    09:00 +26°C° 0 mm 3 m/s 739 mmHg 60%
    10:00 +27°C° 0 mm 3 m/s 739 mmHg 55%
    11:00 +28°C° 0,1 mm 3 m/s 739 mmHg 54%
    12:00 +28°C° 0,1 mm 3 m/s 739 mmHg 52%
    13:00 +28°C° 0 mm 3 m/s 739 mmHg 53%
    14:00 +28°C° 0,2 mm 3 m/s 739 mmHg 54%
    15:00 +28°C° 0,2 mm 3 m/s 739 mmHg 55%
    16:00 +28°C° 0,2 mm 3 m/s 738 mmHg 56%
    17:00 +26°C° 0,1 mm 3 m/s 738 mmHg 62%
    18:00 +24°C° 0,1 mm 3 m/s 738 mmHg 68%
    19:00 +22°C° 0,1 mm 3 m/s 739 mmHg 74%
    20:00 +21°C° 0,1 mm 3 m/s 739 mmHg 75%
    21:00 +20°C° 0,1 mm 3 m/s 739 mmHg 76%
    22:00 +19°C° 0,1 mm 2 m/s 739 mmHg 77%
    23:00 +19°C° 0 mm 2 m/s 740 mmHg 78%

    Mâine, 27 Mai, Duminică

    Timp Temperatura Precipitaţii Vânt Presiune Umiditate
    00:00 +19°C° 0 mm 2 m/s 740 mmHg 78%
    01:00 +18°C° 0 mm 2 m/s 740 mmHg 79%
    02:00 +18°C° 0 mm 2 m/s 739 mmHg 79%
    03:00 +18°C° 0 mm 2 m/s 739 mmHg 80%
    04:00 +17°C° 0 mm 2 m/s 739 mmHg 80%
    05:00 +19°C° 0 mm 2 m/s 739 mmHg 76%
    06:00 +21°C° 0 mm 2 m/s 739 mmHg 73%
    07:00 +24°C° 0 mm 2 m/s 739 mmHg 69%
    08:00 +25°C° 0 mm 2 m/s 739 mmHg 63%
    09:00 +27°C° 0 mm 2 m/s 739 mmHg 57%
    10:00 +28°C° 0 mm 2 m/s 740 mmHg 51%
    11:00 +29°C° 0 mm 2 m/s 739 mmHg 50%
    12:00 +29°C° 0 mm 3 m/s 739 mmHg 49%
    13:00 +30°C° 0 mm 3 m/s 739 mmHg 48%
    14:00 +29°C° 0,1 mm 3 m/s 739 mmHg 50%
    15:00 +29°C° 0,1 mm 3 m/s 739 mmHg 53%
    16:00 +29°C° 0,1 mm 3 m/s 738 mmHg 55%
    17:00 +27°C° 0,1 mm 3 m/s 738 mmHg 62%
    18:00 +25°C° 0,1 mm 2 m/s 738 mmHg 68%
    19:00 +23°C° 0,1 mm 2 m/s 738 mmHg 75%
    20:00 +23°C° 0 mm 2 m/s 739 mmHg 75%
    21:00 +21°C° 0 mm 2 m/s 739 mmHg 75%
    22:00 +20°C° 0 mm 2 m/s 739 mmHg 75%
    23:00 +20°C° 0 mm 2 m/s 739 mmHg 75%

    Poimâine, 28 Mai, Luni

    Timp Temperatura Precipitaţii Vânt Presiune Umiditate
    00:00 +20°C° 0 mm 2 m/s 739 mmHg 75%
    01:00 +19°C° 0 mm 2 m/s 739 mmHg 75%
    02:00 +19°C° 0 mm 2 m/s 739 mmHg 76%
    03:00 +19°C° 0 mm 2 m/s 739 mmHg 77%
    04:00 +18°C° 0 mm 2 m/s 739 mmHg 77%
    05:00 +20°C° 0 mm 2 m/s 739 mmHg 74%
    06:00 +23°C° 0 mm 2 m/s 739 mmHg 71%
    07:00 +24°C° 0 mm 2 m/s 739 mmHg 68%
    08:00 +26°C° 0 mm 1 m/s 739 mmHg 62%
    09:00 +27°C° 0 mm 1 m/s 739 mmHg 57%
    10:00 +29°C° 0 mm 1 m/s 739 mmHg 51%
    11:00 +29°C° 0,1 mm 2 m/s 739 mmHg 51%
    12:00 +30°C° 0,1 mm 2 m/s 739 mmHg 50%
    13:00 +30°C° 0,1 mm 3 m/s 739 mmHg 49%
    14:00 +30°C° 0,2 mm 3 m/s 738 mmHg 51%
    15:00 +29°C° 0,2 mm 3 m/s 738 mmHg 54%
    16:00 +29°C° 0,2 mm 3 m/s 738 mmHg 57%
    17:00 +27°C° 0,1 mm 3 m/s 738 mmHg 63%
    18:00 +25°C° 0,1 mm 2 m/s 738 mmHg 70%
    19:00 +23°C° 0,1 mm 1 m/s 738 mmHg 77%
    20:00 +23°C° 0 mm 1 m/s 739 mmHg 77%
    21:00 +22°C° 0 mm 1 m/s 739 mmHg 77%
    22:00 +20°C° 0 mm 2 m/s 739 mmHg 78%
    23:00 +20°C° 0 mm 2 m/s 739 mmHg 78%

    29 Mai, Marţi

    Timp Temperatura Precipitaţii Vânt Presiune Umiditate
    00:00 +20°C° 0 mm 2 m/s 739 mmHg 78%
    01:00 +19°C° 0 mm 2 m/s 739 mmHg 79%
    02:00 +19°C° 0 mm 2 m/s 738 mmHg 80%
    03:00 +19°C° 0 mm 2 m/s 738 mmHg 80%
    04:00 +18°C° 0 mm 2 m/s 738 mmHg 81%
    05:00 +20°C° 0 mm 2 m/s 738 mmHg 78%
    06:00 +23°C° 0 mm 2 m/s 738 mmHg 74%
    07:00 +24°C° 0 mm 2 m/s 738 mmHg 71%
    08:00 +26°C° 0 mm 2 m/s 738 mmHg 65%
    09:00 +27°C° 0 mm 1 m/s 738 mmHg 59%
    10:00 +29°C° 0 mm 1 m/s 738 mmHg 53%
    11:00 +29°C° 0 mm 2 m/s 738 mmHg 52%
    12:00 +30°C° 0 mm 3 m/s 738 mmHg 52%
    13:00 +30°C° 0 mm 3 m/s 737 mmHg 51%
    14:00 +29°C° 0,2 mm 3 m/s 737 mmHg 53%
    15:00 +29°C° 0,2 mm 3 m/s 737 mmHg 56%
    16:00 +28°C° 0,2 mm 2 m/s 736 mmHg 59%
    17:00 +27°C° 0,1 mm 2 m/s 736 mmHg 64%
    18:00 +25°C° 0,1 mm 1 m/s 736 mmHg 70%
    19:00 +24°C° 0,1 mm 1 m/s 736 mmHg 75%
    20:00 +23°C° 0 mm 1 m/s 736 mmHg 75%
    21:00 +23°C° 0 mm 1 m/s 736 mmHg 75%
    22:00 +22°C° 0 mm 1 m/s 737 mmHg 74%
    23:00 +22°C° 0 mm 1 m/s 736 mmHg 75%

    30 Mai, Miercuri

    Timp Temperatura Precipitaţii Vânt Presiune Umiditate
    00:00 +22°C° 0 mm 1 m/s 736 mmHg 75%
    01:00 +21°C° 0 mm 1 m/s 736 mmHg 76%
    02:00 +21°C° 0,1 mm 1 m/s 736 mmHg 76%
    03:00 +20°C° 0,1 mm 1 m/s 736 mmHg 77%
    04:00 +20°C° 0,1 mm 1 m/s 736 mmHg 77%
    05:00 +22°C° 0 mm 1 m/s 736 mmHg 73%
    06:00 +23°C° 0 mm 1 m/s 736 mmHg 69%
    07:00 +25°C° 0 mm 1 m/s 736 mmHg 65%
    08:00 +26°C° 0,1 mm 1 m/s 736 mmHg 63%
    09:00 +27°C° 0,1 mm 2 m/s 736 mmHg 60%
    10:00 +28°C° 0,1 mm 2 m/s 736 mmHg 57%
    11:00 +28°C° 0,3 mm 2 m/s 736 mmHg 57%
    12:00 +29°C° 0,3 mm 2 m/s 736 mmHg 57%
    13:00 +29°C° 0,3 mm 3 m/s 736 mmHg 58%
    14:00 +29°C° 0,2 mm 2 m/s 736 mmHg 60%
    15:00 +28°C° 0,2 mm 2 m/s 735 mmHg 62%
    16:00 +28°C° 0,2 mm 2 m/s 735 mmHg 64%
    17:00 +26°C° 0,1 mm 1 m/s 735 mmHg 70%
    18:00 +25°C° 0,1 mm 1 m/s 735 mmHg 77%
    19:00 +23°C° 0,1 mm 1 m/s 735 mmHg 83%
    20:00 +22°C° 0,1 mm 1 m/s 735 mmHg 85%
    21:00 +22°C° 0,1 mm 1 m/s 736 mmHg 87%
    22:00 +21°C° 0,1 mm 1 m/s 736 mmHg 88%
    23:00 +21°C° 0,1 mm 1 m/s 736 mmHg 88%

    31 Mai, Joi

    Timp Temperatura Precipitaţii Vânt Presiune Umiditate
    00:00 +20°C° 0,1 mm 1 m/s 735 mmHg 89%
    01:00 +20°C° 0,1 mm 1 m/s 735 mmHg 89%
    02:00 +20°C° 0 mm 1 m/s 735 mmHg 88%
    03:00 +19°C° 0 mm 2 m/s 735 mmHg 87%
    04:00 +18°C° 0 mm 2 m/s 735 mmHg 86%
    05:00 +20°C° 0 mm 2 m/s 735 mmHg 80%
    06:00 +23°C° 0 mm 2 m/s 735 mmHg 73%
    07:00 +24°C° 0 mm 1 m/s 736 mmHg 67%
    08:00 +25°C° 0,1 mm 2 m/s 736 mmHg 63%
    09:00 +27°C° 0,1 mm 2 m/s 735 mmHg 59%
    10:00 +28°C° 0,1 mm 2 m/s 735 mmHg 56%
    11:00 +28°C° 0,1 mm 2 m/s 735 mmHg 56%
    12:00 +28°C° 0,1 mm 3 m/s 735 mmHg 56%
    13:00 +29°C° 0,1 mm 3 m/s 735 mmHg 56%
    14:00 +28°C° 0,1 mm 3 m/s 735 mmHg 58%
    15:00 +28°C° 0,1 mm 2 m/s 735 mmHg 59%
    16:00 +28°C° 0,1 mm 2 m/s 735 mmHg 61%
    17:00 +26°C° 0 mm 2 m/s 735 mmHg 68%
    18:00 +24°C° 0 mm 1 m/s 735 mmHg 74%
    19:00 +22°C° 0 mm 1 m/s 735 mmHg 81%
    20:00 +22°C° 0,1 mm 1 m/s 735 mmHg 82%
    21:00 +21°C° 0,1 mm 1 m/s 735 mmHg 84%
    22:00 +20°C° 0,1 mm 1 m/s 736 mmHg 86%
    23:00 +20°C° 0 mm 1 m/s 736 mmHg 86%
    Arată mai mult